owner,sensor,date,latitude,longitude,vertical_datum,sea_water_speed,direction_of_sea_water_velocity,upward_sea_water_velocity,qcFlag
Anadarko,ioos:station:wmo:42373:1,2022-07-01T00:08:00Z,27.3539,-94.6254,79.0,21.1,145.0,-9999.0,'111111111,111111111,999999991'
Anadarko,ioos:station:wmo:42373:1,2022-07-01T00:28:00Z,27.3539,-94.6254,79.0,18.4,152.9,-9999.0,'111111111,111111111,999999991'
Anadarko,ioos:station:wmo:42373:1,2022-07-01T00:48:00Z,27.3539,-94.6254,79.0,15.4,157.9,-9999.0,'111111111,111111111,999999991'
Anadarko,ioos:station:wmo:42373:1,2022-07-01T01:08:00Z,27.3539,-94.6254,79.0,19.3,153.6,-9999.0,'111111111,111111111,999999991'
Anadarko,ioos:station:wmo:42373:1,2022-07-01T01:28:00Z,27.3539,-94.6254,79.0,19.0,156.8,-9999.0,'111111111,111111111,999999991'
Anadarko,ioos:station:wmo:42373:1,2022-07-01T01:48:00Z,27.3539,-94.6254,79.0,24.1,148.8,-9999.0,'111111111,111111111,999999991'
Anadarko,ioos:station:wmo:42373:1,2022-07-01T02:08:00Z,27.3539,-94.6254,79.0,24.8,136.8,-9999.0,'111111111,111111111,999999991'
Anadarko,ioos:station:wmo:42373:1,2022-07-01T02:28:00Z,27.3539,-94.6254,79.0,27.7,139.7,-9999.0,'111111111,111111111,999999991'
Anadarko,ioos:station:wmo:42373:1,2022-07-01T02:48:00Z,27.3539,-94.6254,79.0,26.6,138.8,-9999.0,'111111111,111111111,999999991'
Anadarko,ioos:station:wmo:42373:1,2022-07-01T03:08:00Z,27.3539,-94.6254,79.0,28.1,139.3,-9999.0,'111111111,111111111,999999991'
Anadarko,ioos:station:wmo:42373:1,2022-07-01T03:28:00Z,27.3539,-94.6254,79.0,28.0,137.9,-9999.0,'111111111,111111111,999999991'
Anadarko,ioos:station:wmo:42373:1,2022-07-01T03:48:00Z,27.3539,-94.6254,79.0,28.4,137.4,-9999.0,'111111111,111111111,999999991'
Anadarko,ioos:station:wmo:42373:1,2022-07-01T04:08:00Z,27.3539,-94.6254,79.0,29.3,136.9,-9999.0,'111111111,111111111,999999991'
Anadarko,ioos:station:wmo:42373:1,2022-07-01T04:28:00Z,27.3539,-94.6254,79.0,28.4,136.7,-9999.0,'111111111,111111111,999999991'
Anadarko,ioos:station:wmo:42373:1,2022-07-01T04:48:00Z,27.3539,-94.6254,79.0,27.2,137.2,-9999.0,'111111111,111111111,999999991'
Anadarko,ioos:station:wmo:42373:1,2022-07-01T05:08:00Z,27.3539,-94.6254,79.0,27.9,135.6,-9999.0,'111111111,111111111,999999991'
Anadarko,ioos:station:wmo:42373:1,2022-07-01T05:28:00Z,27.3539,-94.6254,79.0,26.2,136.2,-9999.0,'111111111,111111111,999999991'
Anadarko,ioos:station:wmo:42373:1,2022-07-01T05:48:00Z,27.3539,-94.6254,79.0,25.2,135.5,-9999.0,'111111111,111111111,999999991'
Anadarko,ioos:station:wmo:42373:1,2022-07-01T06:08:00Z,27.3539,-94.6254,79.0,24.9,137.3,-9999.0,'111111111,111111111,999999991'
Anadarko,ioos:station:wmo:42373:1,2022-07-01T06:28:00Z,27.3539,-94.6254,79.0,23.8,136.5,-9999.0,'111111111,111111111,999999991'
Anadarko,ioos:station:wmo:42373:1,2022-07-01T06:48:00Z,27.3539,-94.6254,79.0,24.8,137.0,-9999.0,'111111111,111111111,999999991'
Anadarko,ioos:station:wmo:42373:1,2022-07-01T07:08:00Z,27.3539,-94.6254,79.0,25.1,140.5,-9999.0,'111111111,111111111,999999991'
Anadarko,ioos:station:wmo:42373:1,2022-07-01T07:28:00Z,27.3539,-94.6254,79.0,25.4,139.2,-9999.0,'111111111,111111111,999999991'
Anadarko,ioos:station:wmo:42373:1,2022-07-01T07:48:00Z,27.3539,-94.6254,79.0,25.0,137.1,-9999.0,'111111111,111111111,999999991'
Anadarko,ioos:station:wmo:42373:1,2022-07-01T08:08:00Z,27.3539,-94.6254,79.0,24.5,136.2,-9999.0,'111111111,111111111,999999991'
Anadarko,ioos:station:wmo:42373:1,2022-07-01T08:28:00Z,27.3539,-94.6254,79.0,26.4,132.4,-9999.0,'111111111,111111111,999999991'
Anadarko,ioos:station:wmo:42373:1,2022-07-01T08:48:00Z,27.3539,-94.6254,79.0,25.4,133.6,-9999.0,'111111111,111111111,999999991'
Anadarko,ioos:station:wmo:42373:1,2022-07-01T09:08:00Z,27.3539,-94.6254,79.0,24.9,134.7,-9999.0,'111111111,111111111,999999991'
Anadarko,ioos:station:wmo:42373:1,2022-07-01T09:28:00Z,27.3539,-94.6254,79.0,25.2,128.9,-9999.0,'111111111,111111111,999999991'
Anadarko,ioos:station:wmo:42373:1,2022-07-01T09:48:00Z,27.3539,-94.6254,79.0,26.2,129.6,-9999.0,'111111111,111111111,999999991'
Anadarko,ioos:station:wmo:42373:1,2022-07-01T10:08:00Z,27.3539,-94.6254,79.0,22.6,130.9,-9999.0,'111111111,111111111,999999991'
Anadarko,ioos:station:wmo:42373:1,2022-07-01T10:28:00Z,27.3539,-94.6254,79.0,22.0,131.1,-9999.0,'111111111,111111111,999999991'
Anadarko,ioos:station:wmo:42373:1,2022-07-01T10:48:00Z,27.3539,-94.6254,79.0,23.0,124.7,-9999.0,'111111111,111111111,999999991'
Anadarko,ioos:station:wmo:42373:1,2022-07-01T11:08:00Z,27.3539,-94.6254,79.0,20.4,123.2,-9999.0,'111111111,111111111,999999991'
Anadarko,ioos:station:wmo:42373:1,2022-07-01T11:28:00Z,27.3539,-94.6254,79.0,17.6,113.5,-9999.0,'111111111,111111111,999999991'
Anadarko,ioos:station:wmo:42373:1,2022-07-01T11:48:00Z,27.3539,-94.6254,79.0,17.2,127.9,-9999.0,'111111111,111111111,999999991'
Anadarko,ioos:station:wmo:42373:1,2022-07-01T12:08:00Z,27.3539,-94.6254,79.0,16.9,118.2,-9999.0,'111111111,111111111,999999991'
Anadarko,ioos:station:wmo:42373:1,2022-07-01T12:28:00Z,27.3539,-94.6254,79.0,17.9,124.3,-9999.0,'111111111,111111111,999999991'
Anadarko,ioos:station:wmo:42373:1,2022-07-01T12:48:00Z,27.3539,-94.6254,79.0,16.9,116.0,-9999.0,'111111111,111111111,999999991'
Anadarko,ioos:station:wmo:42373:1,2022-07-01T13:08:00Z,27.3539,-94.6254,79.0,15.1,120.3,-9999.0,'111111111,111111111,999999991'
Anadarko,ioos:station:wmo:42373:1,2022-07-01T13:28:00Z,27.3539,-94.6254,79.0,14.1,116.0,-9999.0,'111111111,111111111,999999991'
Anadarko,ioos:station:wmo:42373:1,2022-07-01T13:48:00Z,27.3539,-94.6254,79.0,15.8,114.3,-9999.0,'111111111,111111111,999999991'
Anadarko,ioos:station:wmo:42373:1,2022-07-01T14:08:00Z,27.3539,-94.6254,79.0,18.0,109.8,-9999.0,'111111111,111111111,999999991'
Anadarko,ioos:station:wmo:42373:1,2022-07-01T14:28:00Z,27.3539,-94.6254,79.0,17.2,116.6,-9999.0,'111111111,111111111,999999991'
Anadarko,ioos:station:wmo:42373:1,2022-07-01T14:48:00Z,27.3539,-94.6254,79.0,17.6,118.2,-9999.0,'111111111,111111111,999999991'
Anadarko,ioos:station:wmo:42373:1,2022-07-01T15:08:00Z,27.3539,-94.6254,79.0,19.4,120.3,-9999.0,'111111111,111111111,999999991'
Anadarko,ioos:station:wmo:42373:1,2022-07-01T15:28:00Z,27.3539,-94.6254,79.0,20.1,117.6,-9999.0,'111111111,111111111,999999991'
Anadarko,ioos:station:wmo:42373:1,2022-07-01T15:48:00Z,27.3539,-94.6254,79.0,20.2,113.0,-9999.0,'111111111,111111111,999999991'
Anadarko,ioos:station:wmo:42373:1,2022-07-01T16:08:00Z,27.3539,-94.6254,79.0,22.5,112.8,-9999.0,'111111111,111111111,999999991'
Anadarko,ioos:station:wmo:42373:1,2022-07-01T16:28:00Z,27.3539,-94.6254,79.0,21.0,110.3,-9999.0,'111111111,111111111,999999991'
Anadarko,ioos:station:wmo:42373:1,2022-07-01T16:48:00Z,27.3539,-94.6254,79.0,22.9,113.4,-9999.0,'111111111,111111111,999999991'
Anadarko,ioos:station:wmo:42373:1,2022-07-01T17:08:00Z,27.3539,-94.6254,79.0,24.2,112.1,-9999.0,'111111111,111111111,999999991'
Anadarko,ioos:station:wmo:42373:1,2022-07-01T17:28:00Z,27.3539,-94.6254,79.0,23.8,111.9,-9999.0,'111111111,111111111,999999991'
Anadarko,ioos:station:wmo:42373:1,2022-07-01T17:48:00Z,27.3539,-94.6254,79.0,24.1,113.3,-9999.0,'111111111,111111111,999999991'
Anadarko,ioos:station:wmo:42373:1,2022-07-01T18:08:00Z,27.3539,-94.6254,79.0,25.1,113.5,-9999.0,'111111111,111111111,999999991'
Anadarko,ioos:station:wmo:42373:1,2022-07-01T18:28:00Z,27.3539,-94.6254,79.0,25.2,115.9,-9999.0,'111111111,111111111,999999991'
Anadarko,ioos:station:wmo:42373:1,2022-07-01T18:48:00Z,27.3539,-94.6254,79.0,25.0,118.2,-9999.0,'111111111,111111111,999999991'
Anadarko,ioos:station:wmo:42373:1,2022-07-01T19:08:00Z,27.3539,-94.6254,79.0,25.7,115.1,-9999.0,'111111111,111111111,999999991'
Anadarko,ioos:station:wmo:42373:1,2022-07-01T19:28:00Z,27.3539,-94.6254,79.0,22.9,118.1,-9999.0,'111111111,111111111,999999991'
Anadarko,ioos:station:wmo:42373:1,2022-07-01T19:48:00Z,27.3539,-94.6254,79.0,22.5,115.3,-9999.0,'111111111,111111111,999999991'
Anadarko,ioos:station:wmo:42373:1,2022-07-01T20:08:00Z,27.3539,-94.6254,79.0,23.2,119.4,-9999.0,'111111111,111111111,999999991'
Anadarko,ioos:station:wmo:42373:1,2022-07-01T20:28:00Z,27.3539,-94.6254,79.0,21.6,116.1,-9999.0,'111111111,111111111,999999991'
Anadarko,ioos:station:wmo:42373:1,2022-07-01T20:48:00Z,27.3539,-94.6254,79.0,22.7,111.9,-9999.0,'111111111,111111111,999999991'
Anadarko,ioos:station:wmo:42373:1,2022-07-01T21:08:00Z,27.3539,-94.6254,79.0,19.5,111.3,-9999.0,'111111111,111111111,999999991'
Anadarko,ioos:station:wmo:42373:1,2022-07-01T21:28:00Z,27.3539,-94.6254,79.0,21.7,118.1,-9999.0,'111111111,111111111,999999991'
Anadarko,ioos:station:wmo:42373:1,2022-07-01T21:48:00Z,27.3539,-94.6254,79.0,17.9,127.1,-9999.0,'111111111,111111111,999999991'
Anadarko,ioos:station:wmo:42373:1,2022-07-01T22:08:00Z,27.3539,-94.6254,79.0,22.4,119.1,-9999.0,'111111111,111111111,999999991'
Anadarko,ioos:station:wmo:42373:1,2022-07-01T22:28:00Z,27.3539,-94.6254,79.0,22.3,121.1,-9999.0,'111111111,111111111,999999991'
Anadarko,ioos:station:wmo:42373:1,2022-07-01T22:48:00Z,27.3539,-94.6254,79.0,25.3,113.7,-9999.0,'111111111,111111111,999999991'
Anadarko,ioos:station:wmo:42373:1,2022-07-01T23:08:00Z,27.3539,-94.6254,79.0,23.0,115.5,-9999.0,'111111111,111111111,999999991'
Anadarko,ioos:station:wmo:42373:1,2022-07-01T23:28:00Z,27.3539,-94.6254,79.0,24.1,115.8,-9999.0,'111111111,111111111,999999991'
Anadarko,ioos:station:wmo:42373:1,2022-07-01T23:48:00Z,27.3539,-94.6254,79.0,21.7,118.3,-9999.0,'111111111,111111111,999999991'
Anadarko,ioos:station:wmo:42373:1,2022-07-02T00:08:00Z,27.3539,-94.6254,79.0,23.4,121.4,-9999.0,'111111111,111111111,999999991'
Anadarko,ioos:station:wmo:42373:1,2022-07-02T00:28:00Z,27.3539,-94.6254,79.0,24.9,124.5,-9999.0,'111111111,111111111,999999991'
Anadarko,ioos:station:wmo:42373:1,2022-07-02T00:48:00Z,27.3539,-94.6254,79.0,22.2,131.4,-9999.0,'111111111,111111111,999999991'
Anadarko,ioos:station:wmo:42373:1,2022-07-02T01:08:00Z,27.3539,-94.6254,79.0,20.1,137.4,-9999.0,'111111111,111111111,999999991'
Anadarko,ioos:station:wmo:42373:1,2022-07-02T01:28:00Z,27.3539,-94.6254,79.0,25.1,134.5,-9999.0,'111111111,111111111,999999991'
Anadarko,ioos:station:wmo:42373:1,2022-07-02T01:48:00Z,27.3539,-94.6254,79.0,27.5,124.8,-9999.0,'111111111,111111111,999999991'
Anadarko,ioos:station:wmo:42373:1,2022-07-02T02:08:00Z,27.3539,-94.6254,79.0,30.1,117.2,-9999.0,'111111111,111111111,999999991'
Anadarko,ioos:station:wmo:42373:1,2022-07-02T02:28:00Z,27.3539,-94.6254,79.0,35.2,125.3,-9999.0,'111111111,111111111,999999991'
Anadarko,ioos:station:wmo:42373:1,2022-07-02T02:48:00Z,27.3539,-94.6254,79.0,33.2,124.9,-9999.0,'111111111,111111111,999999991'
Anadarko,ioos:station:wmo:42373:1,2022-07-02T03:08:00Z,27.3539,-94.6254,79.0,30.5,122.0,-9999.0,'111111111,111111111,999999991'
Anadarko,ioos:station:wmo:42373:1,2022-07-02T03:28:00Z,27.3539,-94.6254,79.0,29.1,122.9,-9999.0,'111111111,111111111,999999991'
Anadarko,ioos:station:wmo:42373:1,2022-07-02T03:48:00Z,27.3539,-94.6254,79.0,28.6,125.0,-9999.0,'111111111,111111111,999999991'
Anadarko,ioos:station:wmo:42373:1,2022-07-02T04:08:00Z,27.3539,-94.6254,79.0,27.1,122.8,-9999.0,'111111111,111111111,999999991'
Anadarko,ioos:station:wmo:42373:1,2022-07-02T04:28:00Z,27.3539,-94.6254,79.0,27.5,125.4,-9999.0,'111111111,111111111,999999991'
Anadarko,ioos:station:wmo:42373:1,2022-07-02T04:48:00Z,27.3539,-94.6254,79.0,26.1,125.8,-9999.0,'111111111,111111111,999999991'
Anadarko,ioos:station:wmo:42373:1,2022-07-02T05:08:00Z,27.3539,-94.6254,79.0,25.5,124.4,-9999.0,'111111111,111111111,999999991'
Anadarko,ioos:station:wmo:42373:1,2022-07-02T05:28:00Z,27.3539,-94.6254,79.0,25.4,122.4,-9999.0,'111111111,111111111,999999991'
Anadarko,ioos:station:wmo:42373:1,2022-07-02T05:48:00Z,27.3539,-94.6254,79.0,24.3,123.8,-9999.0,'111111111,111111111,999999991'
Anadarko,ioos:station:wmo:42373:1,2022-07-02T06:08:00Z,27.3539,-94.6254,79.0,22.5,121.7,-9999.0,'111111111,111111111,999999991'
Anadarko,ioos:station:wmo:42373:1,2022-07-02T06:28:00Z,27.3539,-94.6254,79.0,22.9,118.7,-9999.0,'111111111,111111111,999999991'
Anadarko,ioos:station:wmo:42373:1,2022-07-02T06:48:00Z,27.3539,-94.6254,79.0,24.5,119.1,-9999.0,'111111111,111111111,999999991'
Anadarko,ioos:station:wmo:42373:1,2022-07-02T07:08:00Z,27.3539,-94.6254,79.0,26.6,119.6,-9999.0,'111111111,111111111,999999991'
Anadarko,ioos:station:wmo:42373:1,2022-07-02T07:28:00Z,27.3539,-94.6254,79.0,26.9,121.1,-9999.0,'111111111,111111111,999999991'
Anadarko,ioos:station:wmo:42373:1,2022-07-02T07:48:00Z,27.3539,-94.6254,79.0,28.4,120.4,-9999.0,'111111111,111111111,999999991'
Anadarko,ioos:station:wmo:42373:1,2022-07-02T08:08:00Z,27.3539,-94.6254,79.0,29.3,121.5,-9999.0,'111111111,111111111,999999991'
Anadarko,ioos:station:wmo:42373:1,2022-07-02T08:28:00Z,27.3539,-94.6254,79.0,28.8,120.5,-9999.0,'111111111,111111111,999999991'
Anadarko,ioos:station:wmo:42373:1,2022-07-02T08:48:00Z,27.3539,-94.6254,79.0,29.8,122.7,-9999.0,'111111111,111111111,999999991'
Anadarko,ioos:station:wmo:42373:1,2022-07-02T09:08:00Z,27.3539,-94.6254,79.0,28.7,119.0,-9999.0,'111111111,111111111,999999991'
Anadarko,ioos:station:wmo:42373:1,2022-07-02T09:28:00Z,27.3539,-94.6254,79.0,29.8,120.9,-9999.0,'111111111,111111111,999999991'
Anadarko,ioos:station:wmo:42373:1,2022-07-02T09:48:00Z,27.3539,-94.6254,79.0,29.6,118.0,-9999.0,'111111111,111111111,999999991'
Anadarko,ioos:station:wmo:42373:1,2022-07-02T10:08:00Z,27.3539,-94.6254,79.0,27.2,119.3,-9999.0,'111111111,111111111,999999991'
Anadarko,ioos:station:wmo:42373:1,2022-07-02T10:28:00Z,27.3539,-94.6254,79.0,26.8,117.5,-9999.0,'111111111,111111111,999999991'
Anadarko,ioos:station:wmo:42373:1,2022-07-02T10:48:00Z,27.3539,-94.6254,79.0,23.8,118.9,-9999.0,'111111111,111111111,999999991'
Anadarko,ioos:station:wmo:42373:1,2022-07-02T11:08:00Z,27.3539,-94.6254,79.0,23.6,122.2,-9999.0,'111111111,111111111,999999991'
Anadarko,ioos:station:wmo:42373:1,2022-07-02T11:28:00Z,27.3539,-94.6254,79.0,20.8,121.9,-9999.0,'111111111,111111111,999999991'
Anadarko,ioos:station:wmo:42373:1,2022-07-02T11:48:00Z,27.3539,-94.6254,79.0,20.3,125.2,-9999.0,'111111111,111111111,999999991'
Anadarko,ioos:station:wmo:42373:1,2022-07-02T12:08:00Z,27.3539,-94.6254,79.0,21.5,123.2,-9999.0,'111111111,111111111,999999991'
Anadarko,ioos:station:wmo:42373:1,2022-07-02T12:28:00Z,27.3539,-94.6254,79.0,18.8,126.6,-9999.0,'111111111,111111111,999999991'
Anadarko,ioos:station:wmo:42373:1,2022-07-02T12:48:00Z,27.3539,-94.6254,79.0,19.9,130.7,-9999.0,'111111111,111111111,999999991'
Anadarko,ioos:station:wmo:42373:1,2022-07-02T13:08:00Z,27.3539,-94.6254,79.0,21.3,118.6,-9999.0,'111111111,111111111,999999991'
Anadarko,ioos:station:wmo:42373:1,2022-07-02T13:28:00Z,27.3539,-94.6254,79.0,24.9,119.3,-9999.0,'111111111,111111111,999999991'
Anadarko,ioos:station:wmo:42373:1,2022-07-02T13:48:00Z,27.3539,-94.6254,79.0,25.0,122.6,-9999.0,'111111111,111111111,999999991'
Anadarko,ioos:station:wmo:42373:1,2022-07-02T14:08:00Z,27.3539,-94.6254,79.0,26.9,123.6,-9999.0,'111111111,111111111,999999991'
Anadarko,ioos:station:wmo:42373:1,2022-07-02T14:28:00Z,27.3539,-94.6254,79.0,27.2,124.7,-9999.0,'111111111,111111111,999999991'
Anadarko,ioos:station:wmo:42373:1,2022-07-02T14:48:00Z,27.3539,-94.6254,79.0,27.6,122.7,-9999.0,'111111111,111111111,999999991'
Anadarko,ioos:station:wmo:42373:1,2022-07-02T15:08:00Z,27.3539,-94.6254,79.0,26.1,117.6,-9999.0,'111111111,111111111,999999991'
Anadarko,ioos:station:wmo:42373:1,2022-07-02T15:28:00Z,27.3539,-94.6254,79.0,26.6,117.5,-9999.0,'111111111,111111111,999999991'
Anadarko,ioos:station:wmo:42373:1,2022-07-02T15:48:00Z,27.3539,-94.6254,79.0,27.1,114.2,-9999.0,'111111111,111111111,999999991'
Anadarko,ioos:station:wmo:42373:1,2022-07-02T16:08:00Z,27.3539,-94.6254,79.0,27.3,115.8,-9999.0,'111111111,111111111,999999991'
Anadarko,ioos:station:wmo:42373:1,2022-07-02T16:28:00Z,27.3539,-94.6254,79.0,27.6,116.7,-9999.0,'111111111,111111111,999999991'
Anadarko,ioos:station:wmo:42373:1,2022-07-02T16:48:00Z,27.3539,-94.6254,79.0,26.7,120.9,-9999.0,'111111111,111111111,999999991'
Anadarko,ioos:station:wmo:42373:1,2022-07-02T17:08:00Z,27.3539,-94.6254,79.0,27.2,120.1,-9999.0,'111111111,111111111,999999991'
Anadarko,ioos:station:wmo:42373:1,2022-07-02T17:28:00Z,27.3539,-94.6254,79.0,27.1,116.5,-9999.0,'111111111,111111111,999999991'
Anadarko,ioos:station:wmo:42373:1,2022-07-02T17:48:00Z,27.3539,-94.6254,79.0,28.3,116.7,-9999.0,'111111111,111111111,999999991'
Anadarko,ioos:station:wmo:42373:1,2022-07-02T18:08:00Z,27.3539,-94.6254,79.0,28.7,118.7,-9999.0,'111111111,111111111,999999991'
Anadarko,ioos:station:wmo:42373:1,2022-07-02T18:28:00Z,27.3539,-94.6254,79.0,27.1,120.2,-9999.0,'111111111,111111111,999999991'
Anadarko,ioos:station:wmo:42373:1,2022-07-02T18:48:00Z,27.3539,-94.6254,79.0,29.0,125.9,-9999.0,'111111111,111111111,999999991'
Anadarko,ioos:station:wmo:42373:1,2022-07-02T19:08:00Z,27.3539,-94.6254,79.0,26.0,125.3,-9999.0,'111111111,111111111,999999991'
Anadarko,ioos:station:wmo:42373:1,2022-07-02T19:28:00Z,27.3539,-94.6254,79.0,28.4,125.8,-9999.0,'111111111,111111111,999999991'
Anadarko,ioos:station:wmo:42373:1,2022-07-02T19:48:00Z,27.3539,-94.6254,79.0,25.6,126.1,-9999.0,'111111111,111111111,999999991'
Anadarko,ioos:station:wmo:42373:1,2022-07-02T20:08:00Z,27.3539,-94.6254,79.0,24.9,130.0,-9999.0,'111111111,111111111,999999991'
Anadarko,ioos:station:wmo:42373:1,2022-07-02T20:28:00Z,27.3539,-94.6254,79.0,24.8,125.0,-9999.0,'111111111,111111111,999999991'
Anadarko,ioos:station:wmo:42373:1,2022-07-02T20:48:00Z,27.3539,-94.6254,79.0,27.8,130.3,-9999.0,'111111111,111111111,999999991'
Anadarko,ioos:station:wmo:42373:1,2022-07-02T21:08:00Z,27.3539,-94.6254,79.0,26.7,133.9,-9999.0,'111111111,111111111,999999991'
Anadarko,ioos:station:wmo:42373:1,2022-07-02T21:28:00Z,27.3539,-94.6254,79.0,26.4,133.3,-9999.0,'111111111,111111111,999999991'
Anadarko,ioos:station:wmo:42373:1,2022-07-02T21:48:00Z,27.3539,-94.6254,79.0,24.9,135.3,-9999.0,'111111111,111111111,999999991'
Anadarko,ioos:station:wmo:42373:1,2022-07-02T22:08:00Z,27.3539,-94.6254,79.0,29.0,134.4,-9999.0,'111111111,111111111,999999991'
Anadarko,ioos:station:wmo:42373:1,2022-07-02T22:28:00Z,27.3539,-94.6254,79.0,27.4,135.0,-9999.0,'111111111,111111111,999999991'
Anadarko,ioos:station:wmo:42373:1,2022-07-02T22:48:00Z,27.3539,-94.6254,79.0,28.1,136.0,-9999.0,'111111111,111111111,999999991'
Anadarko,ioos:station:wmo:42373:1,2022-07-02T23:08:00Z,27.3539,-94.6254,79.0,26.5,132.6,-9999.0,'111111111,111111111,999999991'
Anadarko,ioos:station:wmo:42373:1,2022-07-02T23:28:00Z,27.3539,-94.6254,79.0,25.7,127.1,-9999.0,'111111111,111111111,999999991'
Anadarko,ioos:station:wmo:42373:1,2022-07-02T23:48:00Z,27.3539,-94.6254,79.0,24.3,134.5,-9999.0,'111111111,111111111,999999991'
Anadarko,ioos:station:wmo:42373:1,2022-07-03T00:08:00Z,27.3539,-94.6254,79.0,23.3,135.9,-9999.0,'111111111,111111111,999999991'
Anadarko,ioos:station:wmo:42373:1,2022-07-03T00:28:00Z,27.3539,-94.6254,79.0,25.2,128.2,-9999.0,'111111111,111111111,999999991'
Anadarko,ioos:station:wmo:42373:1,2022-07-03T00:48:00Z,27.3539,-94.6254,79.0,23.2,129.2,-9999.0,'111111111,111111111,999999991'
Anadarko,ioos:station:wmo:42373:1,2022-07-03T01:08:00Z,27.3539,-94.6254,79.0,23.1,126.7,-9999.0,'111111111,111111111,999999991'
Anadarko,ioos:station:wmo:42373:1,2022-07-03T01:28:00Z,27.3539,-94.6254,79.0,22.4,121.1,-9999.0,'111111111,111111111,999999991'
Anadarko,ioos:station:wmo:42373:1,2022-07-03T01:48:00Z,27.3539,-94.6254,79.0,24.5,120.4,-9999.0,'111111111,111111111,999999991'
Anadarko,ioos:station:wmo:42373:1,2022-07-03T02:08:00Z,27.3539,-94.6254,79.0,28.4,115.4,-9999.0,'111111111,111111111,999999991'
Anadarko,ioos:station:wmo:42373:1,2022-07-03T02:28:00Z,27.3539,-94.6254,79.0,33.4,118.8,-9999.0,'111111111,111111111,999999991'
Anadarko,ioos:station:wmo:42373:1,2022-07-03T02:48:00Z,27.3539,-94.6254,79.0,32.2,122.7,-9999.0,'111111111,111111111,999999991'
Anadarko,ioos:station:wmo:42373:1,2022-07-03T03:08:00Z,27.3539,-94.6254,79.0,32.8,121.0,-9999.0,'111111111,111111111,999999991'
Anadarko,ioos:station:wmo:42373:1,2022-07-03T03:28:00Z,27.3539,-94.6254,79.0,30.9,117.0,-9999.0,'111111111,111111111,999999991'
Anadarko,ioos:station:wmo:42373:1,2022-07-03T03:48:00Z,27.3539,-94.6254,79.0,31.2,114.0,-9999.0,'111111111,111111111,999999991'
Anadarko,ioos:station:wmo:42373:1,2022-07-03T04:08:00Z,27.3539,-94.6254,79.0,30.3,112.1,-9999.0,'111111111,111111111,999999991'
Anadarko,ioos:station:wmo:42373:1,2022-07-03T04:28:00Z,27.3539,-94.6254,79.0,29.5,109.8,-9999.0,'111111111,111111111,999999991'
Anadarko,ioos:station:wmo:42373:1,2022-07-03T04:48:00Z,27.3539,-94.6254,79.0,29.9,113.5,-9999.0,'111111111,111111111,999999991'
Anadarko,ioos:station:wmo:42373:1,2022-07-03T05:08:00Z,27.3539,-94.6254,79.0,29.8,112.3,-9999.0,'111111111,111111111,999999991'
Anadarko,ioos:station:wmo:42373:1,2022-07-03T05:28:00Z,27.3539,-94.6254,79.0,29.7,113.2,-9999.0,'111111111,111111111,999999991'
Anadarko,ioos:station:wmo:42373:1,2022-07-03T05:48:00Z,27.3539,-94.6254,79.0,31.6,113.5,-9999.0,'111111111,111111111,999999991'
Anadarko,ioos:station:wmo:42373:1,2022-07-03T06:08:00Z,27.3539,-94.6254,79.0,32.3,118.1,-9999.0,'111111111,111111111,999999991'
Anadarko,ioos:station:wmo:42373:1,2022-07-03T06:28:00Z,27.3539,-94.6254,79.0,34.8,119.7,-9999.0,'111111111,111111111,999999991'
Anadarko,ioos:station:wmo:42373:1,2022-07-03T06:48:00Z,27.3539,-94.6254,79.0,35.8,118.4,-9999.0,'111111111,111111111,999999991'
Anadarko,ioos:station:wmo:42373:1,2022-07-03T07:08:00Z,27.3539,-94.6254,79.0,35.5,122.0,-9999.0,'111111111,111111111,999999991'
Anadarko,ioos:station:wmo:42373:1,2022-07-03T07:28:00Z,27.3539,-94.6254,79.0,36.5,120.3,-9999.0,'111111111,111111111,999999991'
Anadarko,ioos:station:wmo:42373:1,2022-07-03T07:48:00Z,27.3539,-94.6254,79.0,37.9,122.4,-9999.0,'111111111,111111111,999999991'
Anadarko,ioos:station:wmo:42373:1,2022-07-03T08:08:00Z,27.3539,-94.6254,79.0,36.1,118.8,-9999.0,'111111111,111111111,999999991'
Anadarko,ioos:station:wmo:42373:1,2022-07-03T08:28:00Z,27.3539,-94.6254,79.0,35.3,122.5,-9999.0,'111111111,111111111,999999991'
Anadarko,ioos:station:wmo:42373:1,2022-07-03T08:48:00Z,27.3539,-94.6254,79.0,35.4,120.0,-9999.0,'111111111,111111111,999999991'
Anadarko,ioos:station:wmo:42373:1,2022-07-03T09:08:00Z,27.3539,-94.6254,79.0,35.0,122.5,-9999.0,'111111111,111111111,999999991'
Anadarko,ioos:station:wmo:42373:1,2022-07-03T09:28:00Z,27.3539,-94.6254,79.0,36.1,124.7,-9999.0,'111111111,111111111,999999991'
Anadarko,ioos:station:wmo:42373:1,2022-07-03T09:48:00Z,27.3539,-94.6254,79.0,35.3,122.2,-9999.0,'111111111,111111111,999999991'
Anadarko,ioos:station:wmo:42373:1,2022-07-03T10:08:00Z,27.3539,-94.6254,79.0,36.3,124.0,-9999.0,'111111111,111111111,999999991'
Anadarko,ioos:station:wmo:42373:1,2022-07-03T10:28:00Z,27.3539,-94.6254,79.0,36.6,125.6,-9999.0,'111111111,111111111,999999991'
Anadarko,ioos:station:wmo:42373:1,2022-07-03T10:48:00Z,27.3539,-94.6254,79.0,35.8,127.5,-9999.0,'111111111,111111111,999999991'
Anadarko,ioos:station:wmo:42373:1,2022-07-03T11:08:00Z,27.3539,-94.6254,79.0,35.8,124.2,-9999.0,'111111111,111111111,999999991'
Anadarko,ioos:station:wmo:42373:1,2022-07-03T11:28:00Z,27.3539,-94.6254,79.0,33.5,131.0,-9999.0,'111111111,111111111,999999991'
Anadarko,ioos:station:wmo:42373:1,2022-07-03T11:48:00Z,27.3539,-94.6254,79.0,32.8,134.0,-9999.0,'111111111,111111111,999999991'
Anadarko,ioos:station:wmo:42373:1,2022-07-03T12:08:00Z,27.3539,-94.6254,79.0,34.8,125.7,-9999.0,'111111111,111111111,999999991'
Anadarko,ioos:station:wmo:42373:1,2022-07-03T12:28:00Z,27.3539,-94.6254,79.0,29.3,132.2,-9999.0,'111111111,111111111,999999991'
Anadarko,ioos:station:wmo:42373:1,2022-07-03T12:48:00Z,27.3539,-94.6254,79.0,32.8,134.0,-9999.0,'111111111,111111111,999999991'
Anadarko,ioos:station:wmo:42373:1,2022-07-03T13:08:00Z,27.3539,-94.6254,79.0,31.7,130.3,-9999.0,'111111111,111111111,999999991'
Anadarko,ioos:station:wmo:42373:1,2022-07-03T13:28:00Z,27.3539,-94.6254,79.0,34.4,131.0,-9999.0,'111111111,111111111,999999991'